Location: Boncourt
(49.6160°N, 3.9448°E)
Time: 11:02:51
(UTC+00:00)

ATLAS 5 CENTAUR R/B - Visible Passes

Search period start: 28 September 2023 00:00
Search period end: 08 October 2023 00:00
Orbit: 469 x 1153 km, 63.3° (Epoch: 27 September)

Date Brightness Start Highest point End Pass type
(mag) Time Alt. Az. Time Alt. Az. Time Alt. Az.
28 Sep 4.2 01:48:54 15° NNE 01:48:54 15° NNE 01:49:46 10° NE visible
28 Sep 3.4 03:30:03 15° NNW 03:30:58 17° NNW 03:33:47 10° NNE visible
29 Sep 4.6 01:24:54 11° NE 01:24:54 11° NE 01:25:03 10° NE visible
29 Sep 3.5 03:06:03 17° NNW 03:06:08 17° NNW 03:09:03 10° NNE visible
29 Sep 3.9 04:49:35 10° NNW 04:52:01 15° N 04:54:40 10° NE visible
30 Sep 3.6 02:42:03 18° N 02:42:03 18° N 02:44:19 10° NNE visible
30 Sep 3.9 04:24:48 10° NNW 04:27:08 14° N 04:29:41 10° NE visible
01 Oct 3.9 02:18:01 16° N 02:18:01 16° N 02:19:36 10° NNE visible
01 Oct 3.9 03:59:58 10° NNW 04:02:15 14° N 04:04:42 10° NE visible
02 Oct 4.3 01:54:00 14° NNE 01:54:00 14° NNE 01:54:52 10° NNE visible
02 Oct 3.9 03:35:08 10° NNW 03:37:20 14° N 03:39:44 10° NNE visible
03 Oct 4.7 01:29:58 11° NNE 01:29:58 11° NNE 01:30:07 10° NNE visible
03 Oct 3.9 03:11:06 12° NNW 03:12:25 14° N 03:14:47 10° NNE visible
03 Oct 3.9 04:54:45 10° NNW 04:58:14 21° NNE 05:02:12 10° ENE visible
04 Oct 4.0 02:47:04 14° N 02:47:30 14° N 02:49:52 10° NNE visible
04 Oct 4.0 04:30:01 10° NNW 04:33:21 20° NNE 04:37:07 10° ENE visible
05 Oct 4.1 02:23:02 14° N 02:23:02 14° N 02:24:58 10° NNE visible
05 Oct 4.0 04:05:17 10° NNW 04:08:26 19° NNE 04:12:00 10° ENE visible
06 Oct 4.4 01:58:59 13° NNE 01:58:59 13° NNE 02:00:05 10° NNE visible
06 Oct 4.1 03:40:31 10° NNW 03:43:32 18° NNE 03:46:54 10° ENE visible
07 Oct 4.7 01:34:58 11° NNE 01:34:58 11° NNE 01:35:13 10° NNE visible
07 Oct 4.0 03:16:07 11° NNW 03:18:36 17° NNE 03:21:46 10° NE visible
07 Oct 3.1 04:59:26 10° NNW 05:03:54 41° NE 05:09:14 10° ESE visible
